Change the Weather History Date:

Thursday, January 23, 2014

  Actual Average Record
Temperature  
Mean Temperature 69 °F 73 °F  
Max Temperature 77 °F 80 °F 85 °F (1954)
Min Temperature 61 °F 66 °F 55 °F (1969)
Degree Days  
Heating Degree Days 0 0  
Month to date heating degree days 0 0  
Since 1 July heating degree days 0 0  
Cooling Degree Days 4 8  
Month to date cooling degree days 183 186  
Year to date cooling degree days 183 186  
Growing Degree Days 18 (Base 50)    
Moisture  
Dew Point 53 °F    
Average Humidity 61    
Maximum Humidity 78    
Minimum Humidity 44    
Precipitation  
Precipitation 0.00 in 0.07 in 4.75 in (1972)
Month to date precipitation 1.98 1.82  
Year to date precipitation 1.98 1.82  
Snow  
Snow 0.00 in - - ()
Month to date snowfall 0.0  
Since 1 July snowfall 0.0  
Snow Depth 0.00 in    
Sea Level Pressure  
Sea Level Pressure 29.93 in    
Wind  
Wind Speed 6 mph (NW)    
Max Wind Speed 14 mph    
Max Gust Speed 18 mph    
Visibility 10 miles    
Events      
T = Trace of Precipitation, MM = Missing Value Source: NWS Daily Summary

Daily Weather History Graph

Daily Weather History Graph

Search for Another Location

Airport or City:

Trip Planner

Search our weather history database for the weather conditions in past years. The results will help you decide how hot, cold, wet, or windy it might be!

Date:

Astronomy

Jan. 23, 2014 Rise Set
Actual Time 7:11 AM HST 6:16 PM HST
Civil Twilight 6:47 AM HST 6:39 PM HST
Nautical Twilight 6:20 AM HST 7:06 PM HST
Astronomical Twilight 5:54 AM HST 7:33 PM HST
Moon 12:04 AM HST (1/23) 11:51 AM HST (1/23)
Length of Visible Light 11h 52m
Length of Day
11h 04m
Waning Gibbous, 53% of the Moon is Illuminated
Jan 23
Waning Gibbous
Jan 23
Last Quarter
Jan 30
New
Feb 6
First Quarter
Feb 14
Full

Hourly Weather History & Observations

Time (HST) Temp. Dew Point Humidity Pressure Visibility Wind Dir Wind Speed Gust Speed Precip Events Conditions
12:53 AM 66.9 °F 52.0 °F 59% 29.92 in 10.0 mi NNW 8.1 mph - N/A   Partly Cloudy
1:53 AM 66.9 °F 52.0 °F 59% 29.91 in 10.0 mi NNW 8.1 mph - N/A   Partly Cloudy
2:53 AM 64.9 °F 53.1 °F 65% 29.89 in 10.0 mi NNW 4.6 mph - N/A   Partly Cloudy
3:53 AM 61.0 °F 54.0 °F 78% 29.89 in 10.0 mi WNW 3.5 mph - N/A   Scattered Clouds
4:53 AM 63.0 °F 54.0 °F 72% 29.90 in 10.0 mi NW 5.8 mph - N/A   Partly Cloudy
5:53 AM 62.1 °F 54.0 °F 75% 29.92 in 10.0 mi NW 4.6 mph - N/A   Partly Cloudy
6:53 AM 61.0 °F 54.0 °F 78% 29.94 in 10.0 mi NW 4.6 mph - N/A   Partly Cloudy
7:53 AM 62.1 °F 55.0 °F 78% 29.96 in 10.0 mi NW 4.6 mph - N/A   Scattered Clouds
8:53 AM 68.0 °F 54.0 °F 61% 29.97 in 10.0 mi Variable 3.5 mph - N/A   Scattered Clouds
9:53 AM 73.0 °F 51.1 °F 46% 29.98 in 10.0 mi North 8.1 mph - N/A   Scattered Clouds
10:53 AM 73.0 °F 51.1 °F 46% 29.96 in 10.0 mi East 6.9 mph - N/A   Scattered Clouds
11:53 AM 73.9 °F 52.0 °F 46% 29.94 in 10.0 mi NE 9.2 mph - N/A   Scattered Clouds
12:53 PM 73.9 °F 50.0 °F 43% 29.90 in 10.0 mi Calm Calm - N/A   Scattered Clouds
1:53 PM 75.9 °F 54.0 °F 46% 29.86 in 10.0 mi South 9.2 mph - N/A   Scattered Clouds
2:53 PM 75.0 °F 54.0 °F 48% 29.85 in 10.0 mi SW 9.2 mph - N/A   Scattered Clouds
3:53 PM 73.9 °F 55.0 °F 52% 29.87 in 10.0 mi WSW 12.7 mph - N/A   Scattered Clouds
4:53 PM 73.0 °F 55.0 °F 53% 29.91 in 10.0 mi WSW 8.1 mph - N/A   Mostly Cloudy
5:53 PM 72.0 °F 52.0 °F 49% 29.91 in 10.0 mi NW 13.8 mph - N/A   Mostly Cloudy
6:53 PM 70.0 °F 53.1 °F 55% 29.92 in 10.0 mi North 5.8 mph - N/A   Scattered Clouds
7:53 PM 68.0 °F 54.0 °F 61% 29.95 in 10.0 mi NNE 4.6 mph - N/A   Scattered Clouds
8:53 PM 66.9 °F 54.0 °F 63% 29.97 in 10.0 mi Calm Calm - N/A   Partly Cloudy
9:53 PM 66.0 °F 53.1 °F 63% 29.98 in 10.0 mi Calm Calm - N/A   Clear
10:53 PM 64.0 °F 52.0 °F 65% 29.98 in 10.0 mi Variable 4.6 mph - N/A   Clear
11:53 PM 64.0 °F 55.0 °F 73% 29.97 in 10.0 mi NNW 3.5 mph - N/A   Clear